Miscellaneous Local Product
Issued by NWS North Platte, NE

Home | Current Version | Previous Version | Text Only | Print | Product List | Glossary On
Versions: 1 2 3 4 5 6 7 8 9 10 11 12 13 14 15 16 17 18 19 20 21 22 23 24 25 26 27 28 29 30 31 32 33 34 35 36 37 38 39 40 41 42 43 44 45 46 47 48 49 50
000
AXUS43 KLBF 180210
MISLBF


WESTERN AND NORTH CENTRAL NEBRASKA HOURLY WEATHER ROUNDUP
NATIONAL WEATHER SERVICE NORTH PLATTE NE
900 PM CDT THU APR 17 2014

***STATIONS NOT REPORTING VARIABLES SUCH AS SKY/WEATHER OR
PRESSURE ARE PROVIDED BY THE NEBRASKA DEPARTMENT OF
ROADS...RAWS...AND APRS NETWORKS...AND ARE NOT UNDER
NATIONAL WEATHER SERVICE QUALITY CONTROL***

...OBSERVATIONS IN AND NEAR THE EASTERN PANHANDLE OF NEBRASKA...

CITY           SKY/WX    TMP DP  RH WIND       PRES   REMARKS
PINE RIDGE     PTCLDY    47  34  60 S16       29.99F
CHADRON        PTCLDY    50  37  61 SE15      29.96F
ALLIANCE       PTCLDY    48  36  63 SE14      29.99S
SIDNEY         CLEAR     51  32  48 SE12      29.99S
WHITECLAY        N/A     42  32  69 SE10        N/A
CRESCENT LAKE    N/A     48  36  63 SE9G16      N/A
LISCO            N/A     54  35  49 E18         N/A
LEWELLEN         N/A     50  32  50 SE10        N/A
$$

...OBSERVATIONS IN SOUTHWEST NEBRASKA AND FAR NORTHEAST COLORADO...

CITY           SKY/WX    TMP DP  RH WIND       PRES   REMARKS
WRAY           FAIR      51  38  61 S14G21    30.07R
HOLYOKE        FAIR      54  41  62 S18       30.04R
IMPERIAL       PTCLDY    49  36  61 S20G35    30.09R
OGALLALA       CLEAR     51  36  55 S14G21    30.05S
NORTH PLATTE   PTCLDY    47  31  53 SE10      30.11S
MCCOOK         PTCLDY    50  33  52 SE9       30.14S
LEXINGTON      CLEAR     47  34  60 SE9       30.16S
SUTHERLAND       N/A     42  31  63 SE6         N/A
GOTHENBURG       N/A     49  35  59 SE3         N/A
$$

...OBSERVATIONS IN NORTH CENTRAL NEBRASKA...

CITY           SKY/WX    TMP DP  RH WIND       PRES   REMARKS
VALENTINE      CLOUDY    49  26  41 SE12      30.08F
THEDFORD       PTCLDY    50  32  51 SE8       30.11S
AINSWORTH      PTCLDY    44  27  50 SE8       30.11S
O`NEILL        CLEAR     45  21  38 SE8       30.17F
ORD            CLEAR     46  27  47 SE7       30.17S
BROKEN BOW     CLEAR     44  29  55 SE9       30.14F
BROWNLEE         N/A     52  29  40 S15         N/A
SPRINGVIEW       N/A     46  28  49 E6          N/A
DUNNING          N/A     42  28  55 S6          N/A
BREWSTER         N/A     43  27  53 S8          N/A
ROSE             N/A     44  29  55 E8          N/A
NEWPORT          N/A     42  26  52 SE6         N/A
COMSTOCK         N/A     43  27  53 S6          N/A
CHAMBERS         N/A     41  19  41 CALM        N/A
EWING            N/A     44  22  42 CALM        N/A
$$

...SOME WEATHER OBSERVATIONS FROM AROUND THE REGION...

CITY           SKY/WX    TMP DP  RH WIND       PRES   REMARKS
DENVER         PTCLDY    50  33  52 S10       29.99R
LARAMIE        CLEAR     44  21  40 W12       30.02R
CHEYENNE       CLEAR     50  24  36 S13       30.00R
SCOTTSBLUFF    CLEAR     54  37  52 SE15      29.96S
RAPID CITY     PTCLDY    47  35  63 SE14      29.96S
PIERRE         PTCLDY    39  24  55 E14       30.10F WCI  31
WINNER         FAIR      40  25  55 SE17      30.11F WCI  31
SIOUX FALLS    MOCLDY    40  25  55 E9        30.26R WCI  34
OMAHA          PTCLDY    49  26  41 E5        30.25R
GRAND ISLAND   CLEAR     47  28  47 SE6       30.21S
KANSAS CITY    CLEAR     43  32  65 SE6       30.28R
WICHITA        PTCLDY    44  36  73 SE7       30.26R
HAYS           PTCLDY    46  27  46 SE10      30.21S
LIBERAL        CLOUDY    46  37  71 SE6       30.24R
GOODLAND       CLEAR     46  37  71 S16       30.13S
$$



USA.gov is the U.S. government's official web portal to all federal, state and local government web resources and services.